GW2280 Weather Reports


Display with metric or nautical units.
time (UTC)temp
F
wind
direction
speed
MPH
gust
MPH
rain 1hr
in
rain 24hr
in
rain mn
in
humidity
%
barometer
mb
20260505091014 50 232 10.0 19.0 0.00 0.00 0.00 74 1009.8
20260505090512 51 233 9.0 16.0 0.00 0.00 0.00 73 1009.9
20260505090029 51 223 10.0 16.0 0.00 0.00 0.00 73 1009.9
20260505085512 51 200 8.0 23.0 0.00 0.00 0.00 73 1009.9
20260505085016 51 261 9.0 23.0 0.00 0.00 0.00 72 1010.0
20260505084540 51 221 10.0 23.0 0.00 0.00 0.00 72 1010.0
20260505084012 51 237 9.0 17.0 0.00 0.00 0.00 72 1009.9
20260505083511 51 216 10.0 17.0 0.00 0.00 0.00 72 1010.1
20260505083029 51 215 8.0 16.0 0.00 0.00 0.00 72 1010.2
20260505082512 51 268 8.0 16.0 0.00 0.00 0.00 71 1010.3
20260505082010 52 254 9.0 16.0 0.00 0.00 0.00 71 1010.2
20260505081532 52 227 10.0 16.0 0.00 0.00 0.00 71 1010.4
20260505081011 52 222 9.0 17.0 0.00 0.00 0.00 70 1010.4
20260505080514 52 234 10.0 18.0 0.00 0.00 0.00 70 1010.3
20260505080030 52 259 9.0 18.0 0.00 0.00 0.00 70 1010.4
20260505075511 52 282 9.0 18.0 0.00 0.00 0.00 69 1010.4
20260505075015 53 233 10.0 18.0 0.00 0.00 0.00 69 1010.4
20260505074535 53 236 10.0 18.0 0.00 0.00 0.00 69 1010.4
20260505074012 53 217 11.0 17.0 0.00 0.00 0.00 69 1010.4
20260505073511 53 236 9.0 17.0 0.00 0.00 0.00 68 1010.5
20260505073039 53 263 9.0 17.0 0.00 0.00 0.00 68 1010.5
20260505072511 53 276 10.0 18.0 0.00 0.00 0.00 68 1010.4
20260505072010 53 258 9.0 18.0 0.00 0.00 0.00 68 1010.4
20260505071529 53 243 11.0 18.0 0.00 0.00 0.00 68 1010.3
20260505071015 53 246 10.0 20.0 0.00 0.00 0.00 68 1010.3
20260505070512 53 234 10.0 21.0 0.00 0.00 0.00 68 1010.3
20260505070039 53 299 12.0 23.0 0.00 0.00 0.00 68 1010.3
20260505065510 53 263 12.0 23.0 0.00 0.00 0.00 68 1010.4
20260505065011 53 344 11.0 22.0 0.00 0.00 0.00 68 1010.4
20260505064530 53 229 11.0 22.0 0.00 0.00 0.00 67 1010.4
20260505064012 53 210 12.0 22.0 0.00 0.00 0.00 67 1010.3
20260505063513 53 236 12.0 25.0 0.00 0.00 0.00 67 1010.4
20260505063031 53 262 12.0 25.0 0.00 0.00 0.00 67 1010.2
20260505062512 53 228 13.0 23.0 0.00 0.00 0.00 67 1010.3
20260505062011 53 271 13.0 23.0 0.00 0.00 0.00 67 1010.3
20260505061538 53 253 11.0 23.0 0.00 0.00 0.00 67 1010.3
20260505061011 53 219 12.0 25.0 0.00 0.00 0.00 67 1010.3
20260505060517 53 360 13.0 25.0 0.00 0.00 0.00 67 1010.3
20260505060030 53 223 9.0 19.0 0.00 0.00 0.00 67 1010.3
20260505055511 53 241 11.0 21.0 0.00 0.00 0.00 67 1010.3
20260505055013 54 223 10.0 21.0 0.00 0.00 0.00 66 1010.4
20260505054536 54 279 10.0 24.0 0.00 0.00 0.00 66 1010.5
20260505054014 54 268 9.0 24.0 0.00 0.00 0.00 66 1010.5
20260505053516 54 240 13.0 20.0 0.00 0.00 0.00 66 1010.4
20260505053033 54 286 10.0 20.0 0.00 0.00 0.00 65 1010.4
20260505052513 54 233 10.0 22.0 0.00 0.00 0.00 65 1010.3
20260505052011 54 250 10.0 22.0 0.00 0.00 0.00 65 1010.4
20260505051532 54 256 14.0 22.0 0.00 0.00 0.00 65 1010.4
20260505051011 55 243 14.0 25.0 0.00 0.00 0.00 64 1010.6
20260505050514 55 221 11.0 25.0 0.00 0.00 0.00 64 1010.5
20260505041548 56 198 11.0 23.0 0.00 0.00 0.00 62 1010.3
20260505041013 56 229 11.0 23.0 0.00 0.00 0.00 62 1010.3
20260505040511 56 211 12.0 24.0 0.00 0.00 0.00 61 1010.3
20260505040038 56 199 12.0 24.0 0.00 0.00 0.00 62 1010.3
20260505035516 56 202 11.0 24.0 0.00 0.00 0.00 61 1010.1
20260505035016 56 224 9.0 23.0 0.00 0.00 0.00 61 1010.1
20260505034532 57 215 9.0 20.0 0.00 0.00 0.00 60 1010.1
20260505034013 57 235 10.0 20.0 0.00 0.00 0.00 60 1010.1
20260505033511 57 215 11.0 20.0 0.00 0.00 0.00 59 1010.0
20260505033030 57 231 9.0 23.0 0.00 0.00 0.00 59 1010.1
20260505032510 57 196 12.0 23.0 0.00 0.00 0.00 59 1010.1
20260505032017 57 195 8.0 23.0 0.00 0.00 0.00 59 1010.1
20260505031539 57 217 9.0 23.0 0.00 0.00 0.00 59 1010.1
20260505031013 57 285 10.0 25.0 0.00 0.00 0.00 58 1010.0
20260505030511 57 230 11.0 25.0 0.00 0.00 0.00 58 1010.0
20260505030032 58 188 10.0 22.0 0.00 0.00 0.00 58 1010.0
20260505025512 58 192 12.0 26.0 0.00 0.00 0.00 57 1010.0
20260505025016 58 215 12.0 26.0 0.00 0.00 0.00 56 1010.0
20260505024533 58 205 11.0 25.0 0.00 0.00 0.00 55 1010.0
20260505024011 58 239 12.0 25.0 0.00 0.00 0.00 55 1010.1
20260505023512 58 188 9.0 25.0 0.00 0.00 0.00 54 1010.0
20260505023031 58 360 12.0 21.0 0.00 0.00 0.00 54 1010.0
20260505022514 58 360 8.0 16.0 0.00 0.00 0.00 54 1010.0
20260505022014 58 360 7.0 14.0 0.00 0.00 0.00 54 1009.8
20260505021533 58 360 8.0 14.0 0.00 0.00 0.00 54 1009.9
20260505021015 58 360 8.0 14.0 0.00 0.00 0.00 54 1009.9
20260505020511 58 360 7.0 14.0 0.00 0.00 0.00 54 1009.8
20260505020030 58 360 7.0 14.0 0.00 0.00 0.00 53 1009.8
20260505015513 58 360 7.0 14.0 0.00 0.00 0.00 53 1009.7
20260505015013 58 360 8.0 14.0 0.00 0.00 0.00 54 1009.6
20260505014534 58 360 8.0 15.0 0.00 0.00 0.00 54 1009.5
20260505014012 58 360 8.0 15.0 0.00 0.00 0.00 54 1009.4
20260505013516 58 360 7.0 14.0 0.00 0.00 0.00 53 1009.5
20260505013029 58 360 8.0 13.0 0.00 0.00 0.00 53 1009.4
20260505012512 58 360 7.0 12.0 0.00 0.00 0.00 53 1009.4
20260505012013 59 360 7.0 13.0 0.00 0.00 0.00 53 1009.4
20260505011532 59 360 7.0 13.0 0.00 0.00 0.00 53 1009.3
20260505011012 58 227 7.0 12.0 0.00 0.00 0.00 52 1009.3
20260505010513 59 249 7.0 12.0 0.00 0.00 0.00 53 1009.2
20260505010029 59 360 5.0 12.0 0.00 0.00 0.00 52 1009.2
20260505005511 59 225 7.0 12.0 0.00 0.00 0.00 52 1009.0
20260505005011 59 360 7.0 12.0 0.00 0.00 0.00 52 1009.0
20260505004533 59 360 8.0 12.0 0.00 0.00 0.00 51 1009.0
20260505004011 59 360 7.0 12.0 0.00 0.00 0.00 50 1008.9
20260505003513 59 360 7.0 12.0 0.00 0.00 0.00 50 1008.8
20260505003029 60 360 5.0 10.0 0.00 0.00 0.00 49 1008.7
20260505002511 60 360 5.0 9.0 0.00 0.00 0.00 48 1008.6
20260505002010 60 360 4.0 11.0 0.00 0.00 0.00 48 1008.6
20260505001530 60 360 5.0 11.0 0.00 0.00 0.00 47 1008.4
20260505001013 61 360 5.0 11.0 0.00 0.00 0.00 48 1008.5
20260505000517 61 360 5.0 10.0 0.00 0.00 0.00 47 1008.3
20260505000038 61 237 4.0 12.0 0.00 0.00 0.00 47 1008.2
20260504235513 62 232 5.0 12.0 0.00 0.00 0.00 46 1008.1
20260504235013 62 282 6.0 11.0 0.00 0.00 0.00 45 1008.0
20260504234534 62 230 4.0 10.0 0.00 0.00 0.00 45 1008.0
20260504234011 63 212 5.0 10.0 0.00 0.00 0.00 44 1007.9
20260504233516 63 233 5.0 9.0 0.00 0.00 0.00 44 1007.9
20260504233038 63 248 4.0 11.0 0.00 0.00 0.00 44 1007.9
20260504232513 63 258 4.0 13.0 0.00 0.00 0.00 43 1007.9
20260504232012 64 252 5.0 13.0 0.00 0.00 0.00 43 1007.8
20260504231528 64 360 5.0 12.0 0.00 0.00 0.00 43 1007.7
20260504231012 64 286 7.0 14.0 0.00 0.00 0.00 43 1007.6
20260504230512 65 259 6.0 17.0 0.00 0.00 0.00 42 1007.6
20260504230034 66 254 6.0 23.0 0.00 0.00 0.00 41 1007.4
20260504225511 66 252 8.0 23.0 0.00 0.00 0.00 40 1007.3
20260504225012 66 233 11.0 22.0 0.00 0.00 0.00 39 1007.3
20260504224531 67 249 9.0 22.0 0.00 0.00 0.00 40 1007.2
20260504224012 67 257 9.0 23.0 0.00 0.00 0.00 39 1007.3
20260504223511 67 279 10.0 24.0 0.00 0.00 0.00 38 1007.3
20260504223049 67 263 9.0 24.0 0.00 0.00 0.00 39 1007.2
20260504222513 67 259 7.0 16.0 0.00 0.00 0.00 39 1007.2
20260504222015 67 250 8.0 18.0 0.00 0.00 0.00 40 1007.2
20260504221528 67 258 10.0 18.0 0.00 0.00 0.00 39 1007.2
20260504221012 67 247 7.0 19.0 0.00 0.00 0.00 40 1007.1
20260504220513 68 267 10.0 19.0 0.00 0.00 0.00 39 1007.2
20260504220031 68 257 10.0 20.0 0.00 0.00 0.00 38 1007.1
20260504215511 67 265 9.0 20.0 0.00 0.00 0.00 39 1007.1
20260504215012 67 294 10.0 24.0 0.00 0.00 0.00 38 1007.2
20260504214531 67 281 10.0 24.0 0.00 0.00 0.00 39 1007.2
20260504214011 67 248 6.0 21.0 0.00 0.00 0.00 38 1007.1
20260504213516 68 261 9.0 27.0 0.00 0.00 0.00 37 1007.1
20260504213042 69 233 14.0 27.0 0.00 0.00 0.00 36 1007.2
20260504212513 69 251 10.0 27.0 0.00 0.00 0.00 38 1007.1
20260504212015 68 248 12.0 27.0 0.00 0.00 0.00 37 1007.1
20260504211533 68 262 10.0 23.0 0.00 0.00 0.00 38 1007.1
20260504211012 68 280 10.0 27.0 0.00 0.00 0.00 37 1007.1
20260504210512 68 288 13.0 27.0 0.00 0.00 0.00 37 1007.0
20260504210033 68 279 10.0 21.0 0.00 0.00 0.00 37 1007.1
20260504205513 68 241 10.0 29.0 0.00 0.00 0.00 38 1007.1
20260504205011 68 286 14.0 29.0 0.00 0.00 0.00 38 1007.0
20260504204541 69 269 12.0 29.0 0.00 0.00 0.00 38 1006.8
20260504204014 68 284 11.0 26.0 0.00 0.00 0.00 39 1006.9
20260504203512 68 228 10.0 21.0 0.00 0.00 0.00 38 1006.9
20260504203033 67 227 10.0 23.0 0.00 0.00 0.00 38 1006.9
20260504202511 68 259 11.0 26.0 0.00 0.00 0.00 38 1006.9
20260504202012 68 278 12.0 26.0 0.00 0.00 0.00 38 1006.8
20260504201531 68 261 13.0 31.0 0.00 0.00 0.00 38 1007.0
20260504201016 68 277 10.0 31.0 0.00 0.00 0.00 37 1006.9
20260504200513 69 264 12.0 26.0 0.00 0.00 0.00 37 1006.9
20260504200031 69 275 13.0 29.0 0.00 0.00 0.00 36 1007.0
20260504195512 69 318 13.0 30.0 0.00 0.00 0.00 37 1006.9
20260504195016 69 360 16.0 30.0 0.00 0.00 0.00 37 1006.9
20260504194529 68 271 18.0 30.0 0.00 0.00 0.00 38 1007.0
20260504194011 68 275 13.0 29.0 0.00 0.00 0.00 39 1007.0
20260504193512 68 257 14.0 31.0 0.00 0.00 0.00 39 1006.9
20260504193028 68 248 13.0 31.0 0.00 0.00 0.00 39 1007.0
20260504192511 68 241 16.0 31.0 0.00 0.00 0.00 38 1007.0
20260504192013 67 261 11.0 24.0 0.00 0.00 0.00 39 1007.0
20260504191528 67 249 9.0 31.0 0.00 0.00 0.00 40 1007.1
20260504191010 66 269 11.0 31.0 0.00 0.00 0.00 41 1007.0
20260504190514 65 297 10.0 26.0 0.00 0.00 0.00 42 1007.2
20260504190030 64 290 11.0 28.0 0.00 0.00 0.00 42 1007.3
20260504185512 64 284 10.0 30.0 0.00 0.00 0.00 43 1007.3
20260504185012 64 299 15.0 30.0 0.00 0.00 0.00 43 1007.4
20260504184531 64 311 16.0 31.0 0.00 0.00 0.00 42 1007.3
20260504184011 64 264 13.0 31.0 0.00 0.00 0.00 43 1007.5
20260504183513 64 278 12.0 26.0 0.00 0.00 0.00 42 1007.5
20260504183030 64 263 14.0 26.0 0.00 0.00 0.00 41 1007.4
20260504182514 64 290 15.0 35.0 0.00 0.00 0.00 41 1007.3
20260504182011 64 270 14.0 35.0 0.00 0.00 0.00 42 1007.2
20260504181534 64 283 8.0 22.0 0.00 0.00 0.00 42 1007.3
20260504181013 64 277 9.0 24.0 0.00 0.00 0.00 42 1007.3
20260504180513 64 247 12.0 24.0 0.00 0.00 0.00 40 1007.1
20260504180030 64 247 12.0 21.0 0.00 0.00 0.00 40 1007.2
20260504175511 64 270 6.0 26.0 0.00 0.00 0.00 40 1007.3
20260504175012 64 281 10.0 26.0 0.00 0.00 0.00 41 1007.3
20260504174532 64 236 14.0 26.0 0.00 0.00 0.00 41 1007.3
20260504174013 63 221 13.0 27.0 0.00 0.00 0.00 40 1007.3
20260504173512 64 246 16.0 27.0 0.00 0.00 0.00 40 1007.4
20260504173029 64 217 9.0 26.0 0.00 0.00 0.00 41 1007.3
20260504172512 64 269 12.0 26.0 0.00 0.00 0.00 39 1007.5
20260504172013 65 266 13.0 25.0 0.00 0.00 0.00 39 1007.4
20260504171529 65 340 13.0 26.0 0.00 0.00 0.00 39 1007.2
20260504171015 65 248 16.0 32.0 0.00 0.00 0.00 38 1007.3
20260504170511 65 254 15.0 34.0 0.00 0.00 0.00 38 1007.4
20260504151015 62 254 13.0 27.0 0.00 0.00 0.00 48 1008.0
20260504150512 61 241 13.0 27.0 0.00 0.00 0.00 46 1008.1
20260504141012 57 265 12.0 23.0 0.00 0.00 0.00 53 1009.0
20260504140510 57 273 14.0 23.0 0.00 0.00 0.00 54 1009.0
20260504130513 54 242 7.0 18.0 0.00 0.00 0.00 60 1009.5
20260504110512 43 254 10.0 18.0 0.00 0.00 0.00 72 1010.1
20260504100511 40 236 8.0 14.0 0.00 0.00 0.00 73 1010.0